Location: Crescent
(42.8242°N, 73.7329°W)
Time: 14:32:07
(UTC+00:00)

ISS - Visible Passes

Search period start: 10 December 2025 00:00
Search period end: 20 December 2025 00:00
Orbit: 416 x 420 km, 51.6° (Epoch: 09 December)

Date Brightness Start Highest point End Pass type
(mag) Time Alt. Az. Time Alt. Az. Time Alt. Az.
10 Dec -0.5 11:37:33 10° S 11:39:52 17° SE 11:42:11 10° E visible
11 Dec 0.0 10:51:43 10° SE 10:52:10 10° SE 10:52:38 10° ESE visible
12 Dec -2.6 11:37:18 10° SW 11:40:32 47° SE 11:43:48 10° ENE visible
13 Dec -1.6 10:49:46 10° SSW 10:52:41 28° SE 10:55:37 10° ENE visible
14 Dec -0.9 10:02:37 10° S 10:04:51 17° SE 10:07:07 10° E visible
14 Dec -3.8 11:37:58 10° WSW 11:41:18 65° NNW 11:44:40 10° NE visible
15 Dec -3.7 10:50:49 17° SW 10:53:17 78° SE 10:56:40 10° ENE visible
16 Dec -2.6 10:05:37 43° ESE 10:05:37 43° ESE 10:08:32 10° ENE visible
16 Dec -2.8 11:39:05 10° W 11:42:09 32° NNW 11:45:14 10° NE visible
17 Dec -0.2 09:20:08 10° ENE 09:20:08 10° ENE 09:20:13 10° ENE visible
17 Dec -3.4 10:53:05 35° WNW 10:53:58 44° NNW 10:57:14 10° NE visible
18 Dec -2.1 10:07:22 29° NE 10:07:22 29° NE 10:09:11 10° NE visible
18 Dec -2.2 11:40:23 10° WNW 11:43:03 21° NNW 11:45:42 10° NE visible
19 Dec -2.5 10:54:24 25° NNW 10:54:44 25° NNW 10:57:36 10° NE visible
